Regional Weather Roundup
Issued by NWS

Home | Current Version | Previous Version | Graphics & Text | Print | Product List | Glossary On
Versions: 1 2 3 4 5 6 7 8 9 10 11 12 13 14 15 16 17 18 19 20 21 22 23 24 25 26 27 28 29 30 31 32 33 34 35 36 37 38 39 40 41 42 43 44 45 46 47 48 49 50
680
ASUS43 KMPX 271810
RWRMN
WEATHER ROUNDUP FOR MINNESOTA
NATIONAL WEATHER SERVICE TWIN CITIES/CHANHASSEN MN
1200 PM CST MON FEB 27 2017


NOTE: "FAIR" INDICATES FEW OR NO CLOUDS BELOW 12,000 FEET WITH NO
SIGNIFICANT WEATHER AND/OR OBSTRUCTIONS TO VISIBILITY. N/A MEANS
CURRENT SKY AND/OR WEATHER CONDITIONS ARE NOT AVAILABLE.

MNZ060>063-068>070-271900-
   Twin Cities Metro

CITY           SKY/WX    TMP DP  RH WIND       PRES   REMARKS
TWIN CITIES    PTSUNNY   42  18  37 S15       29.97F
6HR MIN TEMP:  22; 6HR MAX TEMP:  42;

ST PAUL        MOSUNNY   42  21  43 SE12      29.98F
CRYSTAL        CLOUDY    42  19  39 S10       29.95F
BLAINE         PTSUNNY   45  21  39 SW14      29.95F
LAKEVILLE      MOSUNNY   36  25  64 S12       29.98S
EDEN PRAIRIE   CLOUDY    43  20  39 SW13G23   29.95F
6HR MIN TEMP:  23; 6HR MAX TEMP:  43;

SOUTH ST PAUL  CLOUDY    41  20  43 S10G16    29.98F
LAKE ELMO      FAIR      41  23  48 S10       29.99F
$$
MNZ001>005-007-008-013>017-022>024-027-028-271900-
   Northwest Minnesota

CITY           SKY/WX    TMP DP  RH WIND       PRES   REMARKS
BEMIDJI        CLOUDY    25  14  61 CALM      29.89R
HALLOCK        CLOUDY    21  16  79 W3        29.91R
ROSEAU         CLOUDY    23  14  68 SW9       29.89S WCI  13
WARROAD        CLOUDY    23  12  63 SW9       29.89S WCI  13
THIEF RVR FALL CLOUDY    22  16  78 S7        29.91  WCI  13
CROOKSTON      CLOUDY    25  18  74 SW6       29.93R WCI  18
FOSSTON        MOSUNNY   28  14  54 CALM      29.90S
DETROIT LAKES  CLOUDY    28  19  69 SE6       29.88S WCI  22
MOORHEAD       CLOUDY    28  18  64 SE5       29.90F WCI  23
PARK RAPIDS    PTSUNNY   29  15  56 SE7       29.87F WCI  22
MAHNOMEN       FAIR      27  17  64 CALM      29.90R
$$
MNZ006-009>011-018-025>026-271900-
   North Central Minnesota

CITY           SKY/WX    TMP DP  RH WIND       PRES   REMARKS
BAUDETTE       CLOUDY    22   8  55 S9        29.89S WCI  12
FLAG ISLAND    CLOUDY    16  10  79 S14       29.87S WCI   1
INTL FALLS     CLOUDY    22   9  57 VRB6      29.92F WCI  14
6HR MIN TEMP:  -1; 6HR MAX TEMP:  22;

WASKISH        CLOUDY    23  12  63 W5        29.91R WCI  17
BIG FORK       CLOUDY    27  10  50 CALM      29.91S
LONGVILLE      SUNNY     30  18  59 S6        29.89F WCI  24
GRAND RAPIDS   MOSUNNY   28  17  63 S8        29.93F WCI  20
CRANE LAKE     CLOUDY    21   3  45 CALM      29.96S
ORR            CLOUDY    25   5  42 CALM      29.90F
COOK           CLOUDY    25   9  50 CALM      29.93F
WALKER         FAIR      26  13  58 E3        29.89S
$$
MNZ012-019>021-037-271900-
   Northeast Minnesota

CITY           SKY/WX    TMP DP  RH WIND       PRES   REMARKS
DULUTH         CLOUDY    27  21  78 S7        29.93F WCI  19
6HR MIN TEMP:  17; 6HR MAX TEMP:  27; 6HR PCP: TRACE;

ELY            CLOUDY    25  10  54 SW7       29.93S WCI  17
HIBBING        CLOUDY    22  14  71 SE5       29.93S WCI  16
EVELETH        CLOUDY    24  12  60 CALM      29.93F
DULUTH HARBOR  CLOUDY    27  21  80 CALM      30.00F
TWO HARBORS    CLOUDY    30  21  69 CALM      29.94F
SILVER BAY     CLOUDY    27  18  69 CALM      29.95S
GRAND MARAIS     N/A     27  16  63 VRB5      30.00F WCI  22
G MARAIS ARPRT FLURRIES  21  10  63 SE7       29.93F WCI  13
$$
MNZ029>031-032-039>041-046>048-054>057-064-271900-
   West Central Minnesota

CITY           SKY/WX    TMP DP  RH WIND       PRES   REMARKS
FERGUS FALLS   CLOUDY    28  21  74 SE7       29.92S WCI  21
WHEATON        CLOUDY    30  25  80 SE8       29.88F WCI  23
MORRIS         CLOUDY    34  27  75 S8        29.86F WCI  27
ALEXANDRIA     CLOUDY    32  25  75 SE10      29.88S WCI  24
ELBOW LAKE     FAIR      30  26  84 E10       29.87F WCI  21
WADENA         CLOUDY    27  18  69 SE7       29.88S WCI  19
GLENWOOD       PTSUNNY   34  27  75 SE8       29.88F WCI  27
APPLETON       CLOUDY    36  23  60 S7        29.88S
BENSON         CLOUDY    37  19  48 SW5       29.90S
ORTONVILLE     CLOUDY    32  21  64 S5        29.86F WCI  27
MADISON        CLOUDY    37  27  65 SE8       29.88S
WILLMAR        FAIR      36  27  69 S5        29.91S
$$
MNZ033>034-036-042>043-049>051-058-059-271900-
   Central Minnesota

CITY           SKY/WX    TMP DP  RH WIND       PRES   REMARKS
ST CLOUD       CLOUDY    37  23  56 S7        29.91F
6HR MIN TEMP:  21; 6HR MAX TEMP:  37;

SAUK CENTRE    FAIR      33  26  78 SE7       29.89F WCI  26
PAYNESVILLE    CLOUDY    36  22  57 S9        29.90F
AITKIN         CLOUDY    32  19  59 S7        29.90F WCI  26
PINE RIVER     CLOUDY    28  19  69 SE7       29.93S WCI  21
BRAINERD       CLOUDY    30  24  78 S7        29.91F WCI  23
STAPLES        MOSUNNY   30  19  64 SE6       29.89S WCI  24
LONG PRAIRIE   FAIR      32  27  80 E8        29.90S WCI  25
LITTLE FALLS   CLOUDY    32  25  74 SE5       29.91F WCI  27
LITCHFIELD     CLOUDY    39  27  60 S3        29.91F
BUFFALO        CLOUDY    38  24  55 SE9       29.94F
MAPLE LAKE     CLOUDY    39  28  64 S5        29.93F
HUTCHINSON     CLOUDY    40  29  64 S12       29.93F
$$
MNZ037-044-045-052-053-271900-
   East Central Minnesota

CITY           SKY/WX    TMP DP  RH WIND       PRES   REMARKS
PRINCETON      PTSUNNY   39  21  48 S6        29.93F
MORA           CLOUDY    34  25  69 S7        29.96F WCI  28
CAMBRIDGE      CLOUDY    41  25  52 S8        29.92F
RUSH CITY      MOSUNNY   38  22  52 SW8       29.95F
MOOSE LAKE     CLOUDY    32  23  69 SE5       29.92F WCI  27
HINCKLEY       FAIR      34  27  75 S3        29.95F
CLOQUET        CLOUDY    28  18  64 CALM      29.93F
MCGREGOR       PTSUNNY   32  21  64 SE3       29.92F
$$
MNZ071>073-080-081-089-090-097-098-271900-
   Southwest Minnesota

CITY           SKY/WX    TMP DP  RH WIND       PRES   REMARKS
MONTEVIDEO     CLOUDY    36  25  64 SW6       29.91S
GRANITE FALLS  CLOUDY    40  27  58 S9        29.91S
CANBY          CLOUDY    41  20  42 CALM      29.88S
MARSHALL       CLOUDY    42  22  44 S16       29.88F
REDWOOD FALLS  CLOUDY    42  21  43 S15       29.91F
OLIVIA         CLOUDY    39  27  60 S10       29.91S
PIPESTONE      MOSUNNY   37  19  48 S12       29.86F
WINDOM         CLOUDY    39  25  56 S10       29.91F
WORTHINGTON    CLOUDY    37  23  56 S15       29.91F
JACKSON        CLOUDY    37  23  56 S12G20    29.92F
TRACY          MOSUNNY   41  23  48 SW13G21   29.89F
SLAYTON        CLOUDY    37  25  63 S13       29.90F
$$
MNZ065>067-074>077-082>085-091>093-271900-
   South Central Minnesota

CITY           SKY/WX    TMP DP  RH WIND       PRES   REMARKS
MANKATO          N/A     35  24  64 S15G22    29.97F WCI  25
NEW ULM        CLOUDY    39  23  52 S13       29.94F
ST JAMES       SUNNY     36  27  69 SE9       29.96F
FAIRMONT       CLOUDY    34  24  67 S15       29.96F WCI  24
GLENCOE        CLOUDY    40  29  65 S8G17     29.93F
FARIBAULT      SUNNY     34  21  60 S12G18    29.99F WCI  25
OWATONNA       SUNNY     36  21  55 S12       29.99F
WASECA         SUNNY     34  25  69 S14       30.00F WCI  24
ALBERT LEA     SUNNY     36  21  55 S9        30.00S
$$
MNZ078>079-086>088-094>096-271900-
   Southeast Minnesota

CITY           SKY/WX    TMP DP  RH WIND       PRES   REMARKS
ROCHESTER      SUNNY     32  25  75 S10       30.02S WCI  24
6HR MIN TEMP:  10; 6HR MAX TEMP:  33;

RED WING       CLOUDY    37  19  48 S5        30.01F
WINONA         SUNNY     41  23  48 S7        30.05F
AUSTIN         SUNNY     34  25  69 S6        30.01F WCI  29
PRESTON        SUNNY     35  24  65 S8        30.03F WCI  28
$$
ABBREVIATIONS USED IN REMARKS
   TC - TEMPERATURES IN CELSIUS
  WCI - WIND CHILL INDEX
   HX - HEAT INDEX
  VSB - VISIBILITY
$$




USA.gov is the U.S. government's official web portal to all federal, state and local government web resources and services.